TOURFACTS.DK  
Stats and Facts from Tour de France.

Tour de France 2017 starts in 5 days
  Riders   Stages   Teams   Summits   Yearly  


 
Search by year

 After:  2016 - Stage 21:
  14626 starters.
  5086 different riders.
  634 teams.
  2211 stages.
  454 restdays.
  436049.60 km.
  5622 abandonnees.


Top 3
Christopher Froome89:04:48
Romain Bardet89:08:53
Nairo Quintana89:09:09
Rafal Majka209 pt.
Thomas De Gendt130 pt.
Jarlinson Pantano ..121 pt.
Peter Sagan470 pt.
Marcel Kittel228 pt.
Michael Matthews199 pt.
Adam Yates89:09:30
Louis Meintjes89:11:46
Emanuel Buchmann89:52:28
Facts from Tour de France 2014
  |   Stages.  |   Stage winners.  |   Days in yellow  |   Average speed.  |   Route.  |   Teams.  |   All riders.  |   Rookies.  |   Withdrawls.  |  

  |   GC.  |   Polka  |   Green  |   White  |   Summits. (In tour)  |   Summits. (Points)  |   Miscellaneous.  |  

Stage 18 on 24 - 07 - 2014
         Owning:    Vincenzo Nibali      Rafal Majka      Peter Sagan      Thibaut Pinot  

Pick a stage:  1 2 3 4 5 6 7 8 9 10 11 12 13 14 15 16 17 18 19 20 21
  PauHautacam | Dist: 145.50 km.
Cat: 3Côte de BenejacqPOLBartosz Huzarski2 points 
Cat: 3Côte de LoucrupNLDLars Boom2 points 
Cat: HCol du TourmaletFRABlel Kadri25 points 
Cat: HMontée du HautacamITAVincenzo Nibali50 points 

Average speed for all riders in stage:  32,784 km./hr.
    Place:Name:Team:Time:Km/h:
ITAVincenzo NibaliKAZAstana Pro Team04:04:17  +  00:00:00=35,737 
FRAThibaut PinotFRAFDJ.fr04:05:27  +  00:01:10=35,567 
POLRafal MajkaRUSTinkoff Saxo04:05:29  +  00:01:12=35,562 
4 FRAJean-Christophe PeraudFRAAg2r La Mondiale04:05:32  +  00:01:15=35,555 
5 USATejay Van GarderenUSABMC Racing Team04:05:32  +  00:01:15=35,555 
6 FRARomain BardetFRAAg2r La Mondiale04:06:10  +  00:01:53=35,464 
7 NLDBauke MollemaNLDBelkin Pro Cycling04:06:14  +  00:01:57=35,454 
8 CZELeopold KönigDEUTeam NetApp – Endura04:06:14  +  00:01:57=35,454 
9 ESPHaimar ZubeldiaUSATrek Factory Racing04:06:16  +  00:01:59=35,449 
10 ESPAlejandro ValverdeESPMovistar Team04:06:16  +  00:01:59=35,449 
11 NLDLaurens ten DamNLDBelkin Pro Cycling04:06:16  +  00:01:59=35,449 
12 LUXFränk SchleckUSATrek Factory Racing04:07:47  +  00:03:30=35,232 
13 NLDSteven KruijswijkNLDBelkin Pro Cycling04:07:47  +  00:03:30=35,232 
14 USRTanel KangertKAZAstana Pro Team04:07:47  +  00:03:30=35,232 
15 FRAArnold JeannessonFRAFDJ.fr04:08:41  +  00:04:24=35,105 
16 LUXBen GastauerFRAAg2r La Mondiale04:08:45  +  00:04:28=35,095 
17 RUSYury TrofimovRUSTeam Katusha04:08:47  +  00:04:30=35,091 
18 FRAPierre RollandFRATeam Europcar04:08:50  +  00:04:33=35,084 
19 JPNChristopher HornerITALampre-Merida04:08:57  +  00:04:40=35,067 
20 FRAJohn GadretESPMovistar Team04:08:57  +  00:04:40=35,067 
21 USAPeter StetinaUSABMC Racing Team04:09:16  +  00:04:59=35,023 
22 FRARudy MolardFRACofidis – Solutions Crédits04:09:37  +  00:05:20=34,974 
23 FRABrice FeilluFRABretagne - Séché Environnement04:09:40  +  00:05:23=34,967 
24 ESPMikel NieveGBRSky Procycling04:09:42  +  00:05:25=34,962 
25 FRACyril GautierFRATeam Europcar04:10:57  +  00:06:40=34,788 
26 CHEMarcel WyssCHEIAM Cycling04:11:39  +  00:07:22=34,691 
27 ESPLuis Angel MateFRACofidis – Solutions Crédits04:12:32  +  00:08:15=34,570 
28 FRAPerrig QuemeneurFRATeam Europcar04:12:52  +  00:08:35=34,524 
29 FRANicolas RocheRUSTinkoff Saxo04:13:12  +  00:08:55=34,479 
30 FRASylvain ChavanelCHEIAM Cycling04:14:27  +  00:10:10=34,309 
31 POLBartosz HuzarskiDEUTeam NetApp – Endura04:15:00  +  00:10:43=34,235 
32 BELJan BakelantsBELOmega Pharma – Quick Step04:15:29  +  00:11:12=34,171 
33 FRAThomas VoecklerFRATeam Europcar04:16:11  +  00:11:54=34,077 
34 JPNYukiya ArashiroFRATeam Europcar04:16:11  +  00:11:54=34,077 
35 FRABlel KadriFRAAg2r La Mondiale04:17:38  +  00:13:21=33,885 
36 BELJurgen Van Den BroeckBELLotto-Belisol Team04:18:07  +  00:13:50=33,822 
37 CHEMichael SchärUSABMC Racing Team04:18:31  +  00:14:14=33,770 
38 AUSMichael RogersRUSTinkoff Saxo04:18:31  +  00:14:14=33,770 
39 ITAGiovanni ViscontiESPMovistar Team04:18:31  +  00:14:14=33,770 
40 ESPImanol ErvitiESPMovistar Team04:18:31  +  00:14:14=33,770 
41 FRAMatthieu LadagnousFRAFDJ.fr04:18:31  +  00:14:14=33,770 
42 BELGreg Van AvermaetUSABMC Racing Team04:20:29  +  00:16:12=33,515 
43 FRAJulien SimonFRACofidis – Solutions Crédits04:20:29  +  00:16:12=33,515 
44 ITAAlessandro De MarchiITACannondale Pro Cycling04:20:33  +  00:16:16=33,506 
45 FRAChristophe RiblonFRAAg2r La Mondiale04:21:52  +  00:17:35=33,338 
46 FRAJérémy RoyFRAFDJ.fr04:23:18  +  00:19:01=33,156 
47 USABenjamin KingUSAGarmin Sharp04:23:18  +  00:19:01=33,156 
48 USRGatis SmukulisRUSTeam Katusha04:23:18  +  00:19:01=33,156 
49 NLDTom-Jelte SlagterUSAGarmin Sharp04:23:18  +  00:19:01=33,156 
50 BELJohan VansummerenUSAGarmin Sharp04:23:18  +  00:19:01=33,156 
51 USAMatthew BuscheUSATrek Factory Racing04:23:18  +  00:19:01=33,156 
52 AUSRichie PorteGBRSky Procycling04:23:18  +  00:19:01=33,156 
53 ESPMarkel IrizarUSATrek Factory Racing04:23:18  +  00:19:01=33,156 
54 HRVKristijan DurasekITALampre-Merida04:23:18  +  00:19:01=33,156 
55 ESPDavid LopezGBRSky Procycling04:23:18  +  00:19:01=33,156 
56 NLDBram TankinkNLDBelkin Pro Cycling04:23:18  +  00:19:01=33,156 
57 WALGeraint ThomasGBRSky Procycling04:23:18  +  00:19:01=33,156 
58 AUSAdam HansenBELLotto-Belisol Team04:23:18  +  00:19:01=33,156 
59 FRAFlorian GuillouFRABretagne - Séché Environnement04:23:18  +  00:19:01=33,156 
60 FRAJean-Marc BideauFRABretagne - Séché Environnement04:23:18  +  00:19:01=33,156 
61 CHESébastien ReichenbachCHEIAM Cycling04:23:42  +  00:19:25=33,106 
62 NLDLars BoomNLDBelkin Pro Cycling04:24:16  +  00:19:59=33,035 
63 USRRein TaaramäeFRACofidis – Solutions Crédits04:24:31  +  00:20:14=33,004 
64 ESPJoaquim RodriguezRUSTeam Katusha04:24:55  +  00:20:38=32,954 
65 FRACédric PineauFRAFDJ.fr04:24:55  +  00:20:38=32,954 
66 DEUPaul VossDEUTeam NetApp – Endura04:25:21  +  00:21:04=32,900 
67 FRAKévin RezaFRATeam Europcar04:25:25  +  00:21:08=32,892 
68 FRATony GallopinBELLotto-Belisol Team04:25:25  +  00:21:08=32,892 
69 PRTJosé João PimentaDEUTeam NetApp – Endura04:26:02  +  00:21:45=32,815 
70 PRTTiago PintoDEUTeam NetApp – Endura04:26:02  +  00:21:45=32,815 
71 PRTNelson OliveiraITALampre-Merida04:26:02  +  00:21:45=32,815 
72 UKRAndriy GrivkoKAZAstana Pro Team04:26:21  +  00:22:04=32,776 
73 CHEJakob FuglsangKAZAstana Pro Team04:26:21  +  00:22:04=32,776 
74 ITAMichele ScarponiKAZAstana Pro Team04:26:21  +  00:22:04=32,776 
75 ITAMatteo MontagutiFRAAg2r La Mondiale04:26:45  +  00:22:28=32,727 
76 ESPJon Izaguirre InsaustiESPMovistar Team04:27:19  +  00:23:02=32,658 
77 ITAMatteo TosattoRUSTinkoff Saxo04:27:19  +  00:23:02=32,658 
78 FRASébastien MinardFRAAg2r La Mondiale04:27:19  +  00:23:02=32,658 
79 DEUAndreas SchillingerDEUTeam NetApp – Endura04:27:19  +  00:23:02=32,658 
80 ESPJesus HerradaESPMovistar Team04:27:19  +  00:23:02=32,658 
81 ITADaniel OssUSABMC Racing Team04:27:19  +  00:23:02=32,658 
82 NLDLieuwe WestraKAZAstana Pro Team04:27:59  +  00:23:42=32,577 
83 FRAJérôme PineauCHEIAM Cycling04:28:56  +  00:24:39=32,462 
84 FRAAmaël MoinardUSABMC Racing Team04:28:56  +  00:24:39=32,462 
85 SVKPeter VelitsUSABMC Racing Team04:28:56  +  00:24:39=32,462 
86 POLMichal GolasBELOmega Pharma – Quick Step04:28:56  +  00:24:39=32,462 
87 ITAMarco MarcatoITACannondale Pro Cycling04:30:46  +  00:26:29=32,242 
88 SVKPeter SaganITACannondale Pro Cycling04:30:46  +  00:26:29=32,242 
89 NLDNiki TerpstraBELOmega Pharma – Quick Step04:31:43  +  00:27:26=32,129 
90 FRAArnaud GérardFRABretagne - Séché Environnement04:32:31  +  00:28:14=32,035 
91 PRTSergio PaulinhoRUSTinkoff Saxo04:32:58  +  00:28:41=31,982 
92 CHEGregory RastUSATrek Factory Racing04:32:58  +  00:28:41=31,982 
93 ITADaniele BennatiRUSTinkoff Saxo04:32:58  +  00:28:41=31,982 
94 NLDAlbert TimmerNLDTeam Giant - Shimano04:33:36  +  00:29:19=31,908 
95 FRABryan CoquardFRATeam Europcar04:35:14  +  00:30:57=31,719 
96 DEUAndré GreipelBELLotto-Belisol Team04:35:18  +  00:31:01=31,711 
97 DEUTony MartinBELOmega Pharma – Quick Step04:35:18  +  00:31:01=31,711 
98 AUSSimon ClarkeAUSOrica - GreenEDGE04:35:18  +  00:31:01=31,711 
99 CHEMartin ElmigerCHEIAM Cycling04:35:18  +  00:31:01=31,711 
100 CANChristian MeierAUSOrica - GreenEDGE04:35:18  +  00:31:01=31,711 
101 CHEMichael AlbasiniAUSOrica - GreenEDGE04:35:18  +  00:31:01=31,711 
102 NLDRoy CurversNLDTeam Giant - Shimano04:35:18  +  00:31:01=31,711 
103 USAAlex HowesUSAGarmin Sharp04:35:18  +  00:31:01=31,711 
104 KAZDmitriy GruzdevKAZAstana Pro Team04:35:18  +  00:31:01=31,711 
105 SVNKristjan KorenITACannondale Pro Cycling04:35:18  +  00:31:01=31,711 
106 FRAArmindo FonsecaFRABretagne - Séché Environnement04:35:18  +  00:31:01=31,711 
107 FRAAnthony DelaplaceFRABretagne - Séché Environnement04:35:18  +  00:31:01=31,711 
108 KAZMaxim IglinskiyKAZAstana Pro Team04:35:18  +  00:31:01=31,711 
109 FRAWilliam BonnetFRAFDJ.fr04:35:18  +  00:31:01=31,711 
110 NLDTom DumoulinNLDTeam Giant - Shimano04:35:18  +  00:31:01=31,711 
111 ITAElia VivianiITACannondale Pro Cycling04:35:18  +  00:31:01=31,711 
112 DNKLars BakBELLotto-Belisol Team04:35:18  +  00:31:01=31,711 
113 BELMaarten WynantsNLDBelkin Pro Cycling04:35:18  +  00:31:01=31,711 
114 BELJens KeukeleireAUSOrica - GreenEDGE04:35:18  +  00:31:01=31,711 
115 ITAFabio SabatiniITACannondale Pro Cycling04:35:18  +  00:31:01=31,711 
116 COLJosé SerpaITALampre-Merida04:35:18  +  00:31:01=31,711 
117 DEUJens VoigtUSATrek Factory Racing04:35:18  +  00:31:01=31,711 
118 CZEJan BártaDEUTeam NetApp – Endura04:35:18  +  00:31:01=31,711 
119 FRAMickaël CherelFRAAg2r La Mondiale04:35:18  +  00:31:01=31,711 
120 CANSvein TuftAUSOrica - GreenEDGE04:35:18  +  00:31:01=31,711 
121 USADanny PateGBRSky Procycling04:35:18  +  00:31:01=31,711 
122 FRACyril LemoineFRACofidis – Solutions Crédits04:35:18  +  00:31:01=31,711 
123 ITAAlessandro PetacchiBELOmega Pharma – Quick Step04:35:18  +  00:31:01=31,711 
124 NLDTom LeezerNLDBelkin Pro Cycling04:35:18  +  00:31:01=31,711 
125 DNKMichael MørkøvRUSTinkoff Saxo04:35:18  +  00:31:01=31,711 
126 FRASamuel DumoulinFRAAg2r La Mondiale04:35:18  +  00:31:01=31,711 
127 AUSLuke DurbridgeAUSOrica - GreenEDGE04:35:18  +  00:31:01=31,711 
128 BELSep VanmarckeNLDBelkin Pro Cycling04:35:18  +  00:31:01=31,711 
129 BELJürgen RoelandtsBELLotto-Belisol Team04:35:18  +  00:31:01=31,711 
130 AUSZakkari DempsterDEUTeam NetApp – Endura04:35:18  +  00:31:01=31,711 
131 FRABenoît JarrierFRABretagne - Séché Environnement04:35:18  +  00:31:01=31,711 
132 FRANicolas EdetFRACofidis – Solutions Crédits04:35:18  +  00:31:01=31,711 
133 USRRamunas NavardauskasUSAGarmin Sharp04:35:18  +  00:31:01=31,711 
134 ESPRubén PlazaESPMovistar Team04:35:18  +  00:31:01=31,711 
135 FRAFlorian VachonFRABretagne - Séché Environnement04:35:18  +  00:31:01=31,711 
136 ESPBeñat IntxaustiESPMovistar Team04:35:18  +  00:31:01=31,711 
137 BLRVasil KiryienkaGBRSky Procycling04:35:18  +  00:31:01=31,711 
138 FRAMickael DelageFRAFDJ.fr04:35:18  +  00:31:01=31,711 
139 FRAYohann GèneFRATeam Europcar04:35:18  +  00:31:01=31,711 
140 NLDSebastian LangeveldUSAGarmin Sharp04:35:18  +  00:31:01=31,711 
141 NZLJack BauerUSAGarmin Sharp04:35:18  +  00:31:01=31,711 
142 AUTBernhard EiselGBRSky Procycling04:35:18  +  00:31:01=31,711 
143 ITAAlessandro VanottiKAZAstana Pro Team04:35:18  +  00:31:01=31,711 
144 FRAAdrien PetitFRACofidis – Solutions Crédits04:35:18  +  00:31:01=31,711 
145 FRARomain FeilluFRABretagne - Séché Environnement04:35:18  +  00:31:01=31,711 
146 DEUMarcus BurghardtUSABMC Racing Team04:35:18  +  00:31:01=31,711 
147 DEUMarcel SiebergBELLotto-Belisol Team04:35:18  +  00:31:01=31,711 
148 FRAAlexandre PichotFRATeam Europcar04:35:18  +  00:31:01=31,711 
149 ITALuca PaoliniRUSTeam Katusha04:35:18  +  00:31:01=31,711 
150 FRAJean-Marc MarinoITACannondale Pro Cycling04:35:18  +  00:31:01=31,711 
151 AUSMark RenshawBELOmega Pharma – Quick Step04:35:45  +  00:31:28=31,659 
152 ITAMatteo TrentinBELOmega Pharma – Quick Step04:36:20  +  00:32:03=31,592 
153 DEUJohn DegenkolbNLDTeam Giant - Shimano04:36:20  +  00:32:03=31,592 
154 NLDKoen De KortNLDTeam Giant - Shimano04:36:21  +  00:32:04=31,590 
155 NLDTom VeelersNLDTeam Giant - Shimano04:36:21  +  00:32:04=31,590 
156 DEUMarcel KittelNLDTeam Giant - Shimano04:36:21  +  00:32:04=31,590 
157 FRAArnaud DémareFRAFDJ.fr04:36:21  +  00:32:04=31,590 
158 NORAlexander KristoffRUSTeam Katusha04:36:21  +  00:32:04=31,590 
159 RUSVladimir IsaichevRUSTeam Katusha04:36:21  +  00:32:04=31,590 
160 DEURoger KlugeCHEIAM Cycling04:36:21  +  00:32:04=31,590 
161 CHNCheng JiNLDTeam Giant - Shimano04:36:21  +  00:32:04=31,590 
162 POLMichal KwiatkowskiBELOmega Pharma – Quick Step04:36:31  +  00:32:14=31,571 
163 POLMaciej BodnarITACannondale Pro Cycling04:36:31  +  00:32:14=31,571 
164 ITADavide CimolaiITALampre-Merida04:36:31  +  00:32:14=31,571 

Withdrawls: 2
 
Rider
Team
Reason
18  ESPJosé Joaquin RojasESPMovistar TeamDisqualified
194  AUSHeinrich HausslerCHEIAM CyclingDid not finish

Todays birthdays.

1899  Ardito Bresciani
1908  Renato Scorticati
1927  Marcel Huber
1941  Roger Cooreman
1942  Luis Santamarina
1952  Ferdi Van den Haute
1956  Graziano Salvietti
1961  Massimo Ghirotto
1963  Thierry Marie
1968  Dominik Krieger
1979  Sébastien Joly
1981  Yohann Gène
1982  William Bonnet
1986  Marcel Wyss
1987  Rafael Valls Ferri
1988  Egor Silin